This is the latest recevied weather packets stored in our database for station/object WA4OPQ-1. If no packets are shown the sender has not sent any weather packets the latest 10 day(s).
| Time | Temp. | Humidity | Pressure | Rain* | Wind** | Luminosity | Snow |
|---|---|---|---|---|---|---|---|
| 1787413499 | 28.89° C | 68% | 1014.3 hPa | 0 mm | 0.45 m/s, 340° | 653 W/m² | - |
| 1787413009 | 29.44° C | 69% | 1014 hPa | 0 mm | 0 m/s | 669 W/m² | - |
| 1787412495 | 28.89° C | 68% | 1013.8 hPa | 0 mm | 0 m/s | 661 W/m² | - |
| 1787411940 | 28.33° C | 74% | 1013.8 hPa | 0 mm | 0 m/s | 648 W/m² | - |
| 1787411454 | 27.78° C | 73% | 1013.6 hPa | 0 mm | 0.45 m/s, 316° | 305 W/m² | - |
| 1787410874 | 27.22° C | 77% | 1013.9 hPa | 0 mm | 0 m/s | 201 W/m² | - |
| 1787410314 | 26.67° C | 80% | 1013.8 hPa | 0 mm | 0 m/s | 182 W/m² | - |
| 1787409744 | 26.11° C | 84% | 1014 hPa | 0 mm | 0 m/s | 162 W/m² | - |
| 1787409224 | 25.56° C | 84% | 1013.9 hPa | 0 mm | 0.45 m/s, 330° | 168 W/m² | - |
| 1787408704 | 25° C | 87% | 1014 hPa | 0 mm | 0 m/s | 387 W/m² | - |
| 1787408144 | 24.44° C | 88% | 1014 hPa | 0 mm | 0 m/s | 87 W/m² | - |
| 1787407584 | 23.89° C | 91% | 1014.1 hPa | 0 mm | 0 m/s | 72 W/m² | - |
| 1787407029 | 23.89° C | 93% | 1014.2 hPa | 0 mm | 0 m/s | 66 W/m² | - |
| 1787406544 | 23.89° C | 94% | 1013.9 hPa | 0 mm | 0 m/s | 62 W/m² | - |
| 1787405974 | 23.33° C | 94% | 1013.8 hPa | 0 mm | 0 m/s | 57 W/m² | - |
| 1787405414 | 23.33° C | 94% | 1013.9 hPa | 0 mm | 0 m/s | 51 W/m² | - |
| 1787404864 | 22.78° C | 96% | 1013.6 hPa | 0 mm | 0.45 m/s, 321° | 48 W/m² | - |
| 1787404359 | 22.22° C | 98% | 1014 hPa | 0 mm | 0 m/s | 58 W/m² | - |
| 1787403839 | 21.67° C | 98% | 1014 hPa | 0 mm | 0 m/s | 41 W/m² | - |
| 1787403344 | 21.67° C | 98% | 1013.9 hPa | 0 mm | 0 m/s | 38 W/m² | - |
| 1787402854 | 21.11° C | 99% | 1013.9 hPa | 0 mm | 0 m/s | 35 W/m² | - |
| 1787402289 | 21.11° C | 99% | 1014 hPa | 0 mm | 0 m/s | 32 W/m² | - |
| 1787401694 | 20.56° C | 99% | 1014.2 hPa | 0 mm | 0 m/s | 30 W/m² | - |
| 1787401139 | 20.56° C | 99% | 1014.3 hPa | 0 mm | 0 m/s | 27 W/m² | - |
| 1787400649 | 20° C | 99% | 1014.8 hPa | 0 mm | 0 m/s | 23 W/m² | - |
* Rain latest hour (hover to see other rain measurements)
** Current wind speed in m/s (hover to see current wind gust speed)